User: anonymous   Login
Location: Caltech
(34.1382°N, 118.1253°W)
Time: 06:59:32
(UTC-07:00)
Language:

Cosmos 2333 Rocket - Orbit

View from above orbital plane
View from above orbital plane
View from above satellite
View from above satellite

Ground track
Ground track

The orbit data is extracted from the following two-line orbital elements,

1 24298U 96051B   16206.96825305  .00000092  00000-0  76382-4 0  9990
2 24298  70.8377  31.7766 0017624 299.6176  60.3188 14.12415726 25612
Epoch (UTC): 24 July 2016 23:14:17
Eccentricity: 0.0017624
inclination: 70.8377°
perigee height: 838 km
apogee height: 864 km
right ascension of ascending node: 31.7766°
argument of perigee: 299.6176°
revolutions per day: 14.12415726
mean anomaly at epoch: 60.3188°
orbit number at epoch: 2561

The dashed part of the orbit path shows where the satellite is in the earth's shadow,  

DLR